Flag for Germany Weather past 2 weeks in Rheine, North Rhine-Westphalia, Germany

Now
52 °F

Cool.


Feels Like: 52 °F
Forecast: 44 / 67 °F
Wind: 1 mph from Northeast

Location: Rheine-Bentlage


UV Index: 3 (Moderate)

Visibility: 2 mi


Pressure: 29.71 "Hg

Humidity: 100%

Dew point: 52 °F

Location of RheineLocation

Historic Weather in Rheine

°F

Rheine temperature yesterday

Maximum temperature yesterday: 68 °F (at 4:20 PM)
Minimum temperature yesterday: 48 °F (at 6:20 AM)
Average temperature yesterday: 59 °F

Past Weeks' High & Low Weather Summary

 TemperatureHumidityPressure
High70 °F (Apr 7, 4:20 PM)100% (Apr 7, 6:20 AM)30.48 "Hg (Apr 7, 6:20 AM)
Low30 °F (Apr 16, 5:20 AM)36% (Apr 16, 3:20 PM)29.71 "Hg (Apr 7, 11:20 PM)
Average50 °F79%30.06 "Hg
* Reported Apr 7 5:20 AM — Apr 21 10:20 AM, Rheine, Weather by CustomWeather, © 2014

Note: Actual official high and low records may vary slightly from our data, if they occured in-between our weather recording intervals... More about our weather records

Advertising

Historic Weather Conditions — Data for Previous 24 hours

 ConditionsComfort  
Time TempWeatherWind HumidityBarometerVisibility
10:20 AM
Apr 21
52 °FCool.1 mph100%29.71 "Hg2 mi
9:20 AM52 °FCool.7 mph100%29.74 "Hg1 mi
8:20 AM52 °FCool.10 mph94%29.74 "Hg2 mi
7:20 AM52 °FCool.6 mph88%29.71 "Hg2 mi
6:20 AM50 °FCool.6 mph94%29.74 "Hg2 mi
5:20 AM50 °FCool.3 mph88%29.74 "Hg2 mi
4:20 AM52 °FCool.6 mph82%29.74 "Hg2 mi
3:20 AM52 °FCool.7 mph82%29.74 "Hg2 mi
2:20 AM52 °FCool.5 mph82%29.77 "Hg2 mi
1:20 AM54 °FCool.2 mph72%29.77 "Hg2 mi
12:20 AM57 °FCool.3 mph63%29.80 "Hg2 mi
11:20 PM
Apr 20
59 °FRefreshingly cool.6 mph59%29.77 "Hg2 mi
10:20 PM61 °FRefreshingly cool.6 mph55%29.77 "Hg2 mi
9:20 PM63 °FMild.8 mph56%29.77 "Hg2 mi
8:20 PM64 °FMild.8 mph52%29.74 "Hg2 mi
7:20 PM66 °FMild.14 mph49%29.74 "Hg2 mi
6:20 PM68 °FMild.15 mph46%29.74 "Hg2 mi
5:20 PM68 °FMild.15 mph46%29.74 "Hg3 mi
4:20 PM68 °FMild.18 mph46%29.74 "Hg2 mi
3:20 PM66 °FMild.17 mph52%29.77 "Hg2 mi
2:20 PM66 °FMild.17 mph56%29.77 "Hg3 mi
1:20 PM66 °FMild.17 mph56%29.80 "Hg3 mi
12:20 PM64 °FMild.14 mph60%29.80 "Hg2 mi
11:20 AM61 °FCool.9 mph72%29.83 "Hg2 mi
Weather by CustomWeather, © 2014

See weather overview